Regional Weather Roundup
Issued by NWS

Home | Current Version | Previous Version | Graphics & Text | Print | Product List | Glossary On
Versions: 1 2 3 4 5 6 7 8 9 10 11 12 13 14 15 16 17 18 19 20 21 22 23 24 25 26 27 28 29 30 31 32 33 34 35 36 37 38 39 40 41 42 43 44 45 46 47 48 49 50
000
ASUS43 KOAX 090802
RWRNE

WEATHER ROUNDUP FOR NEBRASKA
NATIONAL WEATHER SERVICE OMAHA NE
200 AM CST FRI DEC 09 2016

NOTES: SATELLITE DATA IS BEING USED TO AUGMENT CLOUD COVER ABOVE
       12000 FEET.
       "FAIR" INDICATES FEW OR NO CLOUDS BELOW 12,000 FEET WITH NO
       SIGNIFICANT WEATHER AND/OR OBSTRUCTIONS TO VISIBILITY.

  * THESE STATIONS DO NOT REPORT WEATHER SUCH AS RAIN...SNOW OR FOG.

NEZ001>004-019>022-054>056-090900-
NEBRASKA PANHANDLE

CITY           SKY/WX    TMP DP  RH WIND       PRES   REMARKS
SCOTTSBLUFF    CLOUDY     8   1  73 E14       30.20F WCI  -8
ALLIANCE       CLOUDY     6   1  80 S15       30.22F WCI -12
CHADRON        CLOUDY     4  -3  73 VRB3      30.27F
KIMBALL        CLOUDY    12   8  85 S8        30.15F WCI   0
SIDNEY         CLOUDY    12   4  70 S17       30.23F WCI  -5
$$

NEZ057>060-069>072-079>082-090900-
SOUTHWEST NEBRASKA

CITY           SKY/WX    TMP DP  RH WIND       PRES   REMARKS
NORTH PLATTE   CLOUDY     2  -3  80 E6        30.45F WCI  -9
IMPERIAL       CLOUDY     9   2  73 SE8       30.38F WCI  -3
LEXINGTON      CLOUDY     4  -1  77 CALM      30.50F
MCCOOK         CLOUDY     1  -3  83 SE3       30.47F
OGALLALA       CLOUDY    10   4  75 S9        30.35F WCI  -3
$$

NEZ005>010-023>029-035>040-094-090900-
NORTH CENTRAL NEBRASKA

CITY           SKY/WX    TMP DP  RH WIND       PRES   REMARKS
VALENTINE      CLOUDY    -3  -7  82 NE3       30.46F
AINSWORTH      CLOUDY    -2  -6  83 CALM      30.46F
BROKEN BOW     CLOUDY    -2  -6  83 CALM      30.49F
O`NEILL        CLOUDY     0  -3  84 CALM      30.55F
ORD            CLOUDY    -2  -8  76 SW3       30.54F
THEDFORD       CLOUDY     0  -4  82 CALM      30.43F
$$

NEZ041-046>049-061>064-073>077-083>087-090900-
SOUTH CENTRAL NEBRASKA

CITY           SKY/WX    TMP DP  RH WIND       PRES   REMARKS
GRAND ISLAND   CLOUDY     6   2  83 CALM      30.58F
AURORA         CLOUDY     4  -2  76 CALM      30.58S
HASTINGS       CLOUDY     3  -2  79 NE6       30.57F WCI  -8
HEBRON         CLOUDY     6   2  86 CALM      30.62F
HOLDREGE       CLOUDY     4  -1  79 CALM      30.52F
KEARNEY *      CLOUDY     7  -4  61 CALM      30.54F
YORK           CLOUDY     5   0  78 CALM      30.60S
$$

NEZ011>018-030>034-042>045-090900-
NORTHEAST NEBRASKA

CITY           SKY/WX    TMP DP  RH WIND       PRES   REMARKS
NORFOLK        CLEAR      2  -2  83 W6        30.59F WCI  -9
ALBION         CLOUDY     1  -4  81 CALM      30.58F
BLAIR          CLEAR      8   4  83 W5        30.62R WCI   0
FREMONT        CLEAR      7   2  82 CALM      30.64S
TEKAMAH        CLEAR      7   2  80 NW7       30.65S WCI  -5
WAYNE          PTCLDY     3   0  85 CALM      30.61F
$$

NEZ050>053-065>068-078-088>093-090900-
SOUTHEAST NEBRASKA

CITY           SKY/WX    TMP DP  RH WIND       PRES   REMARKS
LINCOLN        CLEAR      7   2  80 CALM      30.66S
OMAHA EPPLEY   CLEAR     11   4  73 NW5       30.65S WCI   3
BEATRICE       CLEAR      6   2  86 CALM      30.63F
FALLS CITY     CLEAR     10   6  84 NW5       30.64F WCI   2
NEBRASKA CITY  CLEAR     12   3  67 NW7       30.63F WCI   2
PLATTSMOUTH    CLEAR     11   3  70 NW7       30.63F WCI   0
$$

NEZ044-045-051>053-067-090900-
OMAHA AREA

CITY           SKY/WX    TMP DP  RH WIND       PRES   REMARKS
OMAHA EPPLEY   CLEAR     11   4  73 NW5       30.65S WCI   3
BLAIR          CLEAR      8   4  83 W5        30.62R WCI   0
FREMONT        CLEAR      7   2  82 CALM      30.64S
MILLARD        CLEAR     13   7  74 NW3       30.65S
OFFUTT AFB     CLEAR     10   6  81 W5        30.64S WCI   2
PLATTSMOUTH    CLEAR     11   3  70 NW7       30.63F WCI   0
WAHOO          FAIR       4   0  80 NW6       30.64S WCI  -6
$$




USA.gov is the U.S. government's official web portal to all federal, state and local government web resources and services.